Location: Recife
(8.0585°S, 34.8848°W)
Time: 12:42:26
(UTC-03:00)

Courier 1B - Pass Details

Date: 22 April 2026
Orbit: 962 x 1209 km, 28.3° (Epoch: 7 May)

Event Time Altitude Azimuth Distance (km) Brightness Sun altitude
Rises 08:37:23 0° 229° (SW) 4,093 10.3 45.2°
Reaches altitude 10° 08:41:19 10° 211° (SSW) 3,145 9.9 46.0°
Maximum altitude 08:46:31 19° 169° (S) 2,553 9.8 47.2°
Drops below altitude 10° 08:51:41 10° 128° (SE) 3,132 10.5 48.3°
Sets 08:55:35 0° 110° (ESE) 4,071 11.1 49.2°
